CAPE
52 1 0 30 92 130 59 31 78 87 6 0 0 0 0 0 62 320 0 0 55 238 638 951 2002 1538 1631 1886 1886 1967 1587 1822 2345 1899 1768 1863 1527 1390 1578 1921 2242 2385 2357 2592 2569 2580 2472 2558 2376
13 0 51 238 127 48 82 134 372 175 23 0 1 0 89 57 133 1 0 15 105 384 689 956 2068 1786 1704 1966 1840 1859 1752 1973 2013 1691 2073 2016 1480 1954 1782 1508 2163 2246 2335 2521 2547 2356 2208 2154 2317
0 35 237 108 6 82 81 203 597 70 1 5 281 189 395 111 2 0 0 5 247 648 892 1282 1673 1777 1764 1922 2039 1860 1732 1831 1851 1756 1839 1855 1686 1363 1865 1824 2003 1942 2278 2327 2418 2221 2144 1961 2008
10 124 7 69 59 89 98 234 126 23 206 406 322 162 13 0 0 0 0 29 250 725 801 1439 1649 1584 1722 1933 2044 1928 1663 1724 1865 1756 1647 1697 1671 1713 1792 1779 1915 1932 2038 2293 2084 2117 2142 2051 2149
51 51 17 55 32 71 115 160 54 269 286 288 280 47 9 98 71 0 2 37 223 409 894 1326 2149 1741 1664 1823 1903 1889 1673 1870 1561 1741 1786 1700 1609 1713 1678 1655 1625 1712 1911 1969 2065 1981 1960 2091 2143
233 107 161 45 63 115 51 12 18 346 333 109 41 101 164 111 0 0 0 53 173 356 867 1219 1663 1634 1772 1897 1579 1696 1760 1770 1719 1859 1753 1688 1606 1696 1731 1668 1672 1770 1812 1897 1834 1973 2052 2163 2289
389 193 180 63 84 2 21 15 173 406 347 251 97 198 113 5 0 0 0 113 196 575 1010 1307 1337 1725 1487 1673 1696 1714 1667 1719 1784 1649 1732 1700 1616 1534 1544 1658 1511 1457 1607 1632 1617 1896 2143 2192 2438
285 147 129 39 17 21 71 45 554 402 214 114 109 78 12 11 0 0 68 190 426 812 1162 1437 1245 1579 1709 1825 1682 1699 1714 1721 1574 1657 1724 1727 1480 1522 1508 1603 1797 1599 1556 1526 1647 1968 2023 2259 2193
175 197 118 75 75 124 106 343 490 160 210 156 125 28 0 5 1 11 127 353 647 783 983 929 1436 1801 1785 1708 1691 1666 1758 1670 1597 1597 1573 1844 1727 1583 1399 1549 1662 1619 1506 1488 1676 1839 1943 1938 2285
133 298 85 114 139 166 299 503 245 387 241 179 151 84 40 4 2 0 102 319 432 645 829 1324 1329 1432 1556 1356 1726 1725 1771 1737 1747 1820 1887 1910 1898 1595 1493 1618 1793 1853 1550 1825 1837 1965 1604 1677 2029
109 214 172 85 159 207 353 282 0 122 94 223 96 52 11 1 0 0 45 150 336 514 837 1193 1422 1329 1403 1754 1642 1535 2192 2260 1760 1928 1778 1712 1712 1605 2154 2293 2301 2186 1874 1317 891 940 1127 1543 1754
0 5 55 30 165 125 328 63 22 76 498 334 146 44 3 0 1 0 70 189 336 429 757 1146 1257 1499 1490 1666 1404 1454 1643 1680 1399 1612 1765 1744 1341 1769 2198 1904 2079 1800 1079 1056 834 1097 1386 1320 1346
0 0 0 0 82 91 199 62 67 345 309 185 137 7 3 0 1 24 69 169 268 275 721 926 1265 1391 1494 1689 1503 1347 1381 1180 1274 1377 1452 1371 1141 1558 1727 1855 1650 1462 994 891 871 1231 1182 1351 1319
0 0 0 0 0 25 208 163 170 130 149 213 157 42 74 82 45 64 81 132 116 292 606 786 1068 1042 1317 1360 1617 1400 1275 1279 1156 1258 1436 1437 1086 1213 1328 1525 1257 1244 963 715 729 1189 1213 1242 1354
0 0 0 126 0 76 151 138 63 233 151 242 237 207 135 103 37 26 0 0 78 360 571 689 697 794 1195 1292 1432 1133 1126 1083 1242 1353 1432 1443 1136 1105 1345 1623 1285 866 692 899 874 1385 1323 1173 1239
0 0 0 259 59 193 145 278 125 476 318 242 142 89 49 63 6 0 7 0 8 117 505 629 214 552 982 1032 1274 964 1023 1106 1505 1441 1507 1470 1543 1323 1274 1882 1299 1383 812 602 1168 1303 1201 1116 1164
0 0 0 111 402 327 302 238 405 629 726 360 205 62 57 111 142 195 165 23 0 107 383 536 518 526 802 1015 930 974 1227 1451 1594 1615 1548 1470 1414 1400 1252 1297 1369 1331 1022 1174 1237 1277 1115 1191 1206
0 0 0 0 402 503 315 289 350 650 732 643 363 188 53 82 184 259 256 94 0 14 295 443 475 687 968 922 977 974 1277 1346 1506 1528 1611 1243 1728 1511 1491 1284 1377 966 1055 1210 1312 1424 1210 1149 1166
0 0 0 0 0 0 0 0 24 425 733 605 514 278 166 110 146 252 296 177 65 59 226 381 387 737 888 824 771 893 1110 1202 1307 1648 1622 1048 1712 1560 1735 1374 1443 999 959 1129 1549 1199 1490 1318 993
0 0 0 0 0 0 0 14 334 529 651 737 496 373 269 148 156 268 302 239 166 178 166 347 432 759 906 920 1016 1040 1154 1050 1409 1724 1727 1479 1529 1442 1585 1564 1501 1749 1494 1579 1569 1376 1146 1298 783
0 0 0 0 0 33 0 20 351 469 475 706 523 468 350 301 210 230 205 206 228 226 207 297 576 707 935 974 987 972 1000 1138 1418 1705 1781 1878 1895 1425 1539 1645 1573 1851 1620 1164 1556 1397 1607 1086 840
0 0 0 0 0 0 0 0 0 460 650 624 667 599 406 384 350 277 241 201 236 275 265 358 616 717 870 1011 1040 1237 1098 1025 1123 1602 1690 2040 1967 1842 1598 1820 1939 1870 1442 1312 1758 1341 1174 1085 816
0 0 0 0 0 0 0 0 0 224 355 658 690 721 550 397 411 299 288 213 212 283 280 383 659 772 915 951 1370 1259 1332 1186 1172 1486 2038 2157 2236 2020 1791 1876 1900 1802 2005 1789 1899 1444 1819 1712 1067
0 0 0 0 0 0 0 0 0 0 0 0 279 665 536 452 402 283 232 233 235 283 291 334 645 1106 970 1019 1076 1322 1456 1408 1267 1411 1741 1680 1918 2161 2277 1986 2039 2064 2046 2076 1915 1647 2176 2142 1914
0 0 0 0 0 0 0 0 0 0 0 0 0 233 592 518 443 426 212 154 220 290 288 352 1005 1233 901 947 1027 1050 1388 1519 1689 1826 1585 1660 1754 1878 2301 2360 2277 2121 2463 2264 1841 2076 2229 2432 2149
0 0 0 0 0 0 0 0 0 0 0 0 4 107 241 482 526 408 370 177 162 298 356 378 842 1293 803 834 1449 1446 1380 1052 1110 1596 1301 1419 1501 1718 2264 2366 2367 2351 2151 2186 2215 1833 2122 2227 2198
0 0 0 0 0 0 0 0 0 0 0 0 0 2 11 108 297 505 403 311 162 349 616 656 932 1285 1027 767 1438 1358 1140 1237 1115 1535 1557 1276 1671 1623 2164 2141 2297 2371 2289 2227 2388 1730 2331 2269 2452
0 0 0 0 0 0 0 0 0 0 0 0 0 0 103 94 147 74 372 438 250 288 471 490 861 1051 1336 947 1015 909 910 944 1122 1089 1471 1528 1536 1773 1733 2234 2300 2352 2280 2226 2294 2172 2313 2295 2211
0 0 0 0 0 0 0 0 0 0 0 0 0 0 49 285 329 276 85 355 413 192 333 458 561 620 661 743 1306 1364 936 692 741 672 1053 1456 1790 1949 1986 2170 2287 2254 2428 2497 2412 2261 2198 2244 2270
0 0 0 0 0 0 0 0 0 0 0 0 0 0 0 158 543 462 37 23 552 515 214 417 435 454 528 995 1321 1038 1012 718 633 696 717 1014 1421 1871 2044 2116 2194 2285 2338 2528 2562 2329 1780 2103 2280
CIN
-16 0 0 -26 -4 -1 -2 -2 -5 -3 -26 0 0 0 0 0 -114 -34 0 0 -130 -81 -16 -4 0 0 0 0 0 0 -2 0 0 0 0 0 -8 -10 -2 0 0 0 0 0 0 0 0 0 0
-68 0 -7 -17 -7 -15 -2 -1 -7 -11 -60 0 -36 0 -59 -79 -115 0 0 -217 -94 -59 -15 -7 0 0 0 0 0 0 0 0 0 0 0 0 -2 0 0 -1 -1 -1 0 0 0 0 0 0 0
-19 -47 -6 -12 -11 -2 -9 -3 0 -44 -11 -31 -6 -26 -33 -101 0 0 0 -56 -66 -27 -9 -1 0 0 0 0 0 0 0 0 0 -1 0 0 0 -1 0 0 0 0 0 0 0 0 0 -3 -6
-83 -1 -28 -36 0 0 0 -34 -9 -18 -2 -19 -26 -59 -146 -4 0 0 0 -149 -63 -16 -13 0 0 0 0 0 0 0 0 -1 0 0 -2 0 -2 0 0 -2 0 0 0 0 0 0 0 -3 -1
-48 -17 0 -1 -4 0 0 0 -29 -13 -5 -45 -41 -93 -64 -96 -127 0 -28 -134 -64 -31 -9 0 0 0 0 0 0 0 0 0 0 -1 0 0 0 0 -1 -1 0 0 0 0 0 -1 -4 -4 -8
-8 -5 -3 0 -3 0 -9 -50 -71 -14 -21 -74 -91 -106 -63 -88 0 0 0 -103 -47 -44 -8 0 0 0 0 0 0 0 0 0 -1 -1 0 0 -2 -1 0 0 0 0 0 0 -1 -5 -6 -9 -4
-3 -5 -27 -1 -2 -79 -65 -89 -14 -7 -13 -26 -70 -57 -79 0 0 0 0 -57 -34 -13 -2 0 0 0 0 0 0 0 0 -1 0 -1 -1 -2 -4 -1 -1 0 0 0 0 -1 -5 -6 -6 -6 -2
-11 -28 -1 -16 -34 -27 -44 -63 -1 -12 -41 -53 -50 -89 0 -20 0 0 -47 -22 -11 -2 0 0 0 0 0 0 0 0 0 0 0 0 0 0 -1 0 -2 -3 0 0 0 -5 -6 -5 -6 -6 -7
-28 -16 -3 -12 -26 -28 -78 -13 -5 -64 -28 -48 -30 -117 0 0 0 -33 -28 -1 0 0 0 -1 0 0 0 0 0 0 0 -1 0 0 0 -2 0 0 0 0 0 0 0 -9 -8 -5 -9 -10 -4
-65 -23 -34 -26 -13 -17 -22 -9 -38 -12 -23 -50 -67 -108 -171 0 0 0 -75 -18 -8 -5 -1 0 0 0 0 0 0 0 0 0 0 0 0 0 0 0 0 0 0 0 0 0 -10 -12 -32 -11 0
-85 -40 -45 -38 -13 -32 -40 -15 -1 -54 -74 -71 -110 -87 -11 -140 0 0 -75 -67 -42 -28 -3 0 0 0 0 0 0 0 0 0 0 0 0 0 0 0 0 0 0 0 -1 -3 -39 -34 -22 -20 -6
-96 -110 -83 -90 -28 -35 -35 -83 -116 -109 -61 -61 -105 -166 0 0 -20 -8 -116 -61 -52 -47 -11 0 0 0 0 0 0 0 0 0 0 0 0 0 -1 0 0 0 0 -1 -21 -36 -54 -37 -36 -33 -34
-49 0 0 0 -37 -71 -49 -75 -108 -52 -86 -111 -100 -116 -77 0 -16 -103 -84 -63 -66 -79 -19 -4 0 0 0 0 0 0 0 0 -2 -4 -5 -4 -8 -1 0 0 -1 -11 -34 -38 -50 -42 -41 -36 -34
0 0 0 0 0 -129 -62 -65 -56 -83 -112 -81 -95 -113 -104 -82 -87 -110 -103 -80 -128 -80 -38 -15 -5 -10 -3 -2 0 -1 0 -3 -10 -10 -12 -19 -19 -10 -9 -6 -14 -19 -36 -56 -63 -43 -34 -30 -30
0 0 0 -104 0 -125 -103 -70 -112 -77 -111 -66 -69 -60 -59 -68 -71 -111 0 0 -151 -72 -50 -33 -34 -32 -10 -11 -6 -10 -10 -8 -6 -9 -21 -14 -35 -27 -10 -5 -11 -29 -65 -58 -55 -37 -38 -26 -32
0 0 0 -73 -111 -119 -93 -10 -85 -60 -102 -75 -90 -92 -115 -112 -79 0 -17 0 -37 -111 -71 -47 -91 -58 -22 -29 -20 -20 -17 -12 -8 -8 -27 -23 -24 -34 -30 -11 -8 -15 -47 -59 -24 -23 -20 -19 -16
0 0 0 -51 -68 -98 -98 -23 -67 -48 -42 -75 -61 -85 -74 -56 -40 -46 -67 -107 0 -122 -83 -70 -67 -62 -46 -29 -29 -24 -23 -14 -11 -16 -26 -28 -27 -34 -32 -19 -11 -20 -29 -29 -18 -21 -21 -17 -9
0 0 0 0 -41 -67 -65 -45 -71 -46 -31 -54 -56 -43 -66 -49 -33 -40 -54 -80 0 -54 -84 -67 -83 -50 -44 -30 -34 -24 -17 -18 -17 -11 -15 -30 -20 -30 -33 -25 -19 -35 -20 -18 -20 -21 -29 -18 -15
0 0 0 0 -1 0 0 0 -138 -96 -43 -72 -71 -60 -44 -39 -28 -33 -46 -59 -87 -100 -77 -85 -98 -62 -41 -43 -30 -23 -17 -26 -19 -15 -20 -32 -16 -25 -22 -25 -20 -29 -20 -19 -20 -27 -18 -14 -40
0 0 0 0 0 0 0 -24 -148 -139 -109 -76 -90 -76 -53 -37 -19 -31 -42 -40 -63 -75 -94 -91 -87 -75 -56 -45 -32 -32 -35 -34 -21 -20 -19 -19 -19 -29 -15 -23 -20 -22 -17 -27 -25 -26 -12 -16 -44
0 0 0 0 0 -70 0 -38 -138 -167 -150 -83 -74 -72 -60 -51 -37 -30 -38 -44 -51 -64 -85 -106 -98 -86 -68 -55 -51 -46 -46 -40 -24 -17 -13 -15 -14 -24 -24 -21 -22 -23 -18 -13 -25 -30 -20 -6 -44
0 0 0 0 0 0 0 0 0 -146 -129 -120 -81 -66 -97 -74 -52 -28 -30 -47 -49 -64 -79 -93 -89 -79 -67 -75 -53 -36 -15 -13 -19 -15 -12 -12 -17 -17 -22 -20 -15 -20 -13 -20 -15 -33 -32 -38 -9
0 0 0 0 0 0 0 0 0 -178 -114 -79 -70 -71 -88 -99 -76 -67 -48 -56 -63 -70 -77 -83 -100 -83 -66 -76 -46 -36 -14 -11 -22 -19 -14 -15 -14 -14 -14 -17 -18 -21 -10 -20 -21 -41 -33 -16 -11
0 0 0 0 0 0 0 0 0 0 0 0 -146 -91 -106 -97 -79 -89 -67 -57 -65 -69 -79 -82 -97 -84 -81 -81 -61 -46 -21 -15 -16 -18 -11 -10 -8 -8 -13 -14 -17 -19 -14 -14 -15 -30 -23 -18 -22
0 0 0 0 0 0 0 0 0 0 0 0 0 -173 -101 -107 -98 -88 -117 -103 -82 -76 -89 -87 -95 -84 -106 -91 -66 -64 -30 -17 -18 -18 -10 -11 -8 -10 -8 -15 -14 -10 -13 -13 -19 -18 -17 -13 -9
0 0 0 0 0 0 0 0 0 0 0 0 -59 -248 -186 -111 -80 -94 -97 -139 -100 -76 -94 -114 -124 -98 -132 -115 -69 -43 -42 -25 -12 -13 -11 -10 -10 -11 -14 -15 -11 -13 -16 -10 -17 -10 -6 -12 -12
0 0 0 0 0 0 0 0 0 0 0 0 0 -103 -212 -253 -138 -70 -85 -103 -141 -130 -114 -103 -103 -109 -128 -139 -95 -76 -64 -54 -33 -14 -26 -18 -26 -13 -19 -15 -14 -15 -16 -14 -13 -8 -9 -15 -9
0 0 0 0 0 0 0 0 0 0 0 0 0 0 -273 -286 -256 -266 -152 -120 -170 -156 -160 -171 -122 -126 -120 -144 -125 -114 -107 -106 -71 -44 -23 -22 -29 -32 -25 -22 -15 -9 -18 -19 -17 -9 -11 -12 -5
0 0 0 0 0 0 0 0 0 0 0 0 0 0 -216 -213 -226 -273 -330 -209 -177 -225 -164 -178 -177 -167 -157 -136 -106 -92 -115 -120 -117 -97 -59 -25 -26 -36 -36 -30 -24 -14 -12 -13 -12 -12 -6 -11 -7
0 0 0 0 0 0 0 0 0 0 0 0 0 0 0 -252 -184 -241 -460 -407 -194 -190 -235 -195 -171 -160 -167 -143 -132 -129 -120 -126 -119 -131 -109 -71 -33 -29 -30 -33 -33 -26 -19 -13 -13 -11 -14 -12 -6
Wind_Speed
10 8 3 3 2 2 1 2 1 3 7 3 15 7 9 6 1 3 8 12 19 16 13 13 10 11 9 8 9 10 9 9 9 9 9 9 8 7 7 8 8 8 10 10 10 11 12 12 12
8 5 3 2 1 2 3 3 7 4 8 18 9 14 5 5 3 7 15 18 20 16 14 12 10 10 9 10 9 9 9 8 8 8 7 7 7 6 6 7 7 8 9 10 9 9 11 11 12
9 2 2 1 3 1 3 2 9 2 18 14 6 5 4 3 5 16 12 21 19 15 12 11 12 11 10 10 9 9 8 8 8 8 7 8 6 7 8 7 8 8 9 9 9 9 10 9 12
4 1 2 1 3 3 3 6 10 13 9 6 9 7 5 3 14 7 20 20 18 15 13 12 12 12 10 9 9 8 7 7 7 7 6 8 8 7 9 7 9 9 8 10 9 9 9 8 9
1 1 2 2 2 1 4 3 4 1 3 4 3 4 6 4 8 18 19 18 18 15 12 12 11 12 10 9 8 8 8 7 8 6 7 7 7 9 7 10 10 10 9 10 9 8 6 5 7
1 1 0 2 3 4 2 2 1 3 6 7 8 8 5 9 16 17 17 17 15 15 12 11 12 11 10 9 9 7 7 7 8 6 8 7 6 8 10 10 12 12 11 10 8 8 6 7 10
2 1 3 4 6 2 2 1 1 2 8 6 11 6 6 11 17 16 15 15 14 13 11 10 11 10 9 8 8 7 7 7 7 6 8 8 7 9 8 9 9 12 11 10 9 8 8 10 11
1 1 1 2 4 4 7 4 4 3 5 10 9 7 11 13 19 16 14 14 13 12 11 10 9 8 7 8 9 8 7 8 7 7 7 8 9 10 10 10 9 12 10 10 9 9 10 10 11
2 1 4 3 4 2 10 6 5 2 7 1 3 9 18 21 20 17 15 13 11 10 11 10 10 9 8 7 8 8 8 7 7 7 8 7 5 8 8 9 10 10 9 9 10 9 9 10 11
3 3 2 0 2 3 7 10 10 6 8 6 14 18 22 23 20 19 17 15 14 13 12 10 10 9 8 6 8 7 6 5 5 5 6 4 5 6 7 8 9 10 10 9 9 9 8 5 6
3 2 2 1 1 6 7 9 6 10 6 8 17 23 23 23 20 18 16 15 14 12 10 11 10 9 8 6 5 4 4 3 4 5 5 5 4 5 4 4 4 5 6 4 3 5 3 5 3
4 7 4 2 2 3 6 10 6 2 3 8 20 24 23 23 20 18 16 15 14 12 11 11 10 9 8 6 5 5 4 3 4 4 4 4 3 4 4 4 4 4 3 4 3 3 3 3 4
8 3 4 6 5 1 7 6 4 7 10 16 22 23 21 20 19 16 14 14 13 12 12 12 10 9 8 6 5 4 5 4 4 3 4 3 4 4 4 4 3 3 3 3 3 3 3 4 4
6 9 10 6 8 6 6 5 5 9 16 18 23 22 21 20 20 16 15 14 14 13 13 12 10 9 8 7 6 5 4 4 3 3 3 3 3 4 4 4 4 4 2 2 3 2 3 2 3
2 4 2 5 8 5 8 5 4 15 18 18 20 19 19 19 18 18 17 16 15 12 12 12 11 9 9 8 7 5 4 5 3 2 4 4 3 2 2 4 3 3 3 4 2 2 3 1 2
4 3 3 4 9 5 7 3 11 17 19 19 19 18 18 19 19 16 15 13 13 12 12 11 10 10 10 8 7 5 5 4 3 2 2 4 4 3 4 4 4 4 4 3 3 2 3 2 2
1 6 4 5 2 6 6 3 8 12 14 18 17 18 17 17 17 15 14 14 14 13 13 12 12 11 11 8 7 6 6 4 3 3 3 4 4 4 2 2 4 5 4 3 3 3 1 3 3
9 6 3 6 9 4 9 8 6 11 13 15 17 17 18 17 18 16 15 13 13 13 12 12 11 11 10 6 5 5 5 4 3 4 4 5 3 5 3 3 5 5 4 4 3 3 3 2 3
6 6 8 3 3 4 7 7 6 12 12 14 17 18 18 19 18 16 15 13 12 12 12 13 14 12 9 7 6 6 6 5 5 5 5 5 4 7 5 4 5 5 4 3 4 4 4 3 2
7 7 5 2 3 4 1 1 2 7 12 15 18 18 19 18 17 16 15 14 15 15 14 14 14 13 11 8 6 3 4 4 3 4 5 5 5 4 5 5 4 5 4 5 5 3 3 2 2
5 8 5 3 1 3 1 4 2 2 6 11 16 16 18 18 19 17 16 16 15 15 15 15 15 14 12 10 6 3 4 3 4 6 5 6 6 6 5 5 4 4 5 4 5 5 3 3 2
10 7 5 3 2 4 3 5 2 1 8 11 15 18 18 19 18 18 18 18 18 18 16 15 14 13 12 12 9 9 7 6 5 6 6 6 6 6 5 5 5 6 4 5 5 4 2 3 3
3 7 7 3 3 3 4 5 4 2 4 10 13 16 20 20 20 21 22 20 18 18 17 17 15 14 13 12 11 9 9 6 5 6 8 6 6 7 6 5 5 5 4 4 4 4 4 3 2
11 8 7 4 3 6 4 5 6 7 13 14 9 16 17 19 20 19 19 18 17 17 18 16 16 15 14 13 13 13 11 9 6 7 7 7 6 6 6 6 6 4 4 5 5 4 4 2 2
7 9 6 7 6 5 1 4 7 9 14 15 9 10 17 17 19 17 18 18 18 18 18 17 16 16 15 15 15 15 13 11 10 9 7 8 7 6 8 8 6 5 6 6 5 5 4 5 3
14 12 5 8 9 8 2 9 6 8 13 16 16 7 6 15 15 17 18 19 19 19 18 19 17 17 17 17 16 13 13 10 9 10 7 7 7 8 8 8 7 7 5 4 6 5 4 4 3
6 8 2 6 1 8 6 6 6 13 17 19 18 15 13 6 10 17 18 18 19 20 20 20 18 16 17 19 14 14 13 13 11 10 9 8 7 6 8 8 8 7 6 5 5 5 5 4 4
3 5 7 2 8 10 6 5 4 12 15 16 18 17 15 13 10 9 15 19 18 21 21 21 19 19 19 19 16 15 15 14 13 11 11 10 9 8 8 9 9 8 7 7 7 5 5 5 5
1 4 4 2 3 5 8 5 5 7 9 12 14 16 17 16 13 11 12 15 18 19 20 21 20 20 18 18 16 14 15 15 14 13 13 11 10 9 9 9 9 9 9 9 8 8 7 7 6
6 3 1 7 7 2 1 7 7 7 10 11 13 15 15 16 16 15 12 8 13 16 18 20 19 19 20 17 16 17 15 14 15 14 15 13 12 10 10 9 10 10 10 10 10 10 8 9 9
Wind_Direction
153 145 157 173 191 209 198 64 258 96 150 152 142 155 160 130 160 84 139 154 147 149 152 154 145 135 123 128 117 110 105 107 97 98 104 102 98 99 101 94 90 95 87 86 89 86 91 92 90
149 150 196 147 246 167 89 3 22 292 130 139 119 131 116 109 75 128 141 159 148 147 152 151 138 139 126 130 132 124 110 104 98 96 95 87 91 88 110 102 102 103 88 88 90 93 95 98 95
159 259 225 159 127 176 99 45 13 90 140 145 109 67 62 82 95 146 131 152 148 146 148 144 143 143 135 138 143 133 119 116 121 111 107 98 94 95 80 102 107 102 101 98 87 94 99 103 98
155 161 112 221 114 98 74 16 16 122 112 74 97 67 84 337 148 159 146 150 147 146 151 143 148 148 142 145 133 127 132 127 119 110 109 99 101 97 107 106 102 100 99 97 97 99 95 86 91
221 220 123 120 112 90 117 122 8 16 99 59 59 92 82 55 123 141 147 153 149 147 150 147 152 148 150 151 142 145 136 141 123 122 125 103 105 115 95 106 114 117 103 97 94 90 78 79 96
163 289 158 107 126 93 128 125 22 189 135 130 111 110 81 122 139 146 151 152 150 146 149 148 144 152 156 144 149 144 144 138 129 144 108 104 104 103 113 114 108 106 101 96 93 79 60 94 99
329 297 9 86 109 96 142 110 91 68 132 127 141 97 108 147 146 148 154 147 150 145 143 149 152 150 156 156 144 146 144 133 134 119 114 108 95 97 103 107 111 105 106 104 98 84 79 102 97
302 294 34 54 143 127 156 128 80 58 104 133 150 157 160 158 150 148 152 147 151 149 148 147 155 154 153 157 152 146 138 141 130 118 105 96 99 97 93 103 109 108 112 111 104 89 83 102 100
234 256 123 136 169 146 146 150 100 273 138 188 138 143 136 151 149 149 150 150 153 158 156 159 159 151 150 150 142 148 142 131 132 117 101 98 94 99 113 96 109 108 112 113 103 92 89 107 105
231 238 135 205 187 197 183 158 136 163 129 87 99 115 139 149 156 157 160 160 168 162 166 160 160 155 152 147 142 141 131 128 124 115 108 103 100 102 103 107 103 104 112 103 91 81 74 90 101
199 254 203 23 115 132 148 138 149 153 161 170 153 144 151 154 162 164 168 170 170 170 170 168 161 159 157 137 143 142 120 129 129 116 120 114 114 116 109 101 90 112 100 111 97 113 83 80 73
224 259 266 348 154 140 142 129 143 153 70 154 150 150 153 161 166 170 174 173 169 174 182 169 166 161 154 150 158 150 141 149 147 124 118 137 131 115 103 113 112 110 91 94 67 87 82 106 98
235 250 238 239 232 230 143 128 123 119 121 134 145 151 157 166 171 173 180 177 174 176 187 176 171 168 158 160 144 157 152 163 140 151 115 132 128 125 126 119 128 117 117 115 101 80 77 98 68
206 246 266 289 222 193 183 142 176 148 138 146 154 162 165 172 176 171 179 184 182 181 185 174 183 174 170 163 162 167 165 157 174 153 115 133 142 133 140 137 135 130 116 125 98 95 88 80 26
249 271 174 38 188 172 164 160 196 146 154 159 166 168 171 174 176 182 182 186 187 187 180 179 187 181 182 174 168 176 174 168 173 179 153 157 190 150 215 144 158 147 136 146 129 115 117 89 98
206 238 186 86 161 157 213 99 168 159 157 168 172 173 173 175 185 189 186 191 187 186 191 180 188 188 190 183 174 176 177 190 184 204 192 187 216 214 212 147 161 148 161 168 159 153 139 87 99
171 184 145 139 141 152 221 53 148 160 167 171 177 177 179 181 189 193 187 191 191 189 191 188 188 191 198 192 182 184 182 202 195 202 198 185 193 216 178 145 143 161 159 166 159 146 100 113 84
164 162 125 147 191 223 200 244 141 164 176 181 181 179 189 190 197 195 196 189 192 191 194 202 187 195 192 195 185 187 194 207 201 200 196 200 183 187 198 152 154 164 153 148 143 140 114 85 67
137 143 129 112 155 235 233 273 226 175 176 179 186 185 186 194 199 201 201 191 188 194 198 201 194 193 187 188 193 202 207 199 205 193 184 190 230 166 180 173 158 170 171 149 152 138 129 118 100
154 150 151 126 119 243 10 34 8 199 195 185 185 188 191 190 191 203 204 196 193 196 199 203 204 192 198 190 201 224 204 190 177 168 170 188 210 179 173 185 167 162 162 172 174 161 143 106 135
183 180 175 140 135 122 337 159 250 174 207 193 195 196 196 195 192 197 198 199 199 200 202 203 206 197 199 198 183 157 160 140 167 165 171 180 184 192 195 174 178 184 194 176 177 179 186 148 150
199 190 167 156 203 176 326 195 127 215 205 198 196 201 201 200 201 201 200 201 202 203 207 206 206 206 203 190 192 197 200 198 202 177 168 169 179 181 182 182 174 173 179 173 177 176 181 209 161
189 165 185 173 166 236 139 240 86 26 249 222 208 208 206 205 201 204 203 204 206 203 203 207 204 205 205 199 200 199 213 212 195 181 169 169 174 183 168 188 184 180 187 188 179 174 178 182 180
143 108 80 89 171 202 143 258 56 12 339 314 254 210 206 207 207 211 208 204 210 204 204 206 204 205 205 201 203 206 206 204 202 197 192 182 181 174 184 188 184 187 200 198 195 194 180 180 174
178 172 149 175 193 184 176 207 51 13 6 348 292 239 213 207 204 206 206 205 209 206 206 203 201 204 202 203 206 212 216 210 206 198 202 184 181 186 184 193 187 195 183 194 193 195 197 205 180
189 202 209 185 186 158 146 165 74 26 21 25 33 12 261 224 212 211 207 205 207 208 207 205 198 203 202 203 205 211 214 218 221 213 207 208 207 198 178 190 193 196 207 189 178 197 205 191 195
144 201 42 114 85 180 144 107 194 22 24 24 25 27 25 341 246 225 221 213 209 206 203 203 204 203 201 206 202 204 213 216 219 224 215 211 214 208 187 190 197 192 197 203 191 210 203 211 217
352 108 172 208 165 177 131 121 64 8 9 12 17 16 9 2 345 289 243 226 216 213 206 201 202 203 203 203 201 203 210 212 212 217 222 217 213 212 198 197 201 201 199 198 203 209 213 217 215
32 123 64 99 322 182 164 117 40 33 30 17 19 14 17 10 3 337 282 244 232 216 211 207 206 202 203 207 207 207 206 212 210 214 216 220 219 207 206 204 208 210 203 205 206 215 211 221 219
46 77 331 221 177 61 346 113 54 48 41 33 25 19 14 12 9 6 1 261 235 218 215 211 208 208 212 205 201 207 208 204 214 214 215 215 221 215 212 203 205 213 212 205 215 220 217 217 216